Location: Unspecified
(51.6250°N, 0.8230°E)
Time: 11:03:01
(UTC+00:00)

ISS - Pass Details

Date: 04 February 2021
Orbit: 417 x 422 km, 51.6° (Epoch: 06 March)

Event Time Altitude Azimuth Distance (km) Brightness Sun altitude
Rises 18:41:54 0° 280° (W) 2,376 1.6 -17.3°
Reaches altitude 10° 18:44:36 10° 258° (WSW) 1,508 0.3 -17.7°
Maximum altitude 18:46:42 16° 219° (SW) 1,209 -0.9 -18.0°
Drops below altitude 10° 18:48:48 10° 181° (S) 1,503 -0.9 -18.3°
Enters shadow 18:49:55 - 168° (SSE) 1,823 -0.6 -18.5°
